• In Uzbekistan
  • List of Countries
  • For 7 days
  • Water Temperature
  • Satellite Maps
  • Weather Map
  • Weather Widgets
  • user-avatar
    Login

    Hourly Weather La Rioja

    Today, 24 April, Monday

    Time Temperature Precipitation Wind Pressure Humidity
    00:00 +20°C° 0 mm 2 mps 712 mmHg 77%
    01:00 +20°C° 0 mm 3 mps 713 mmHg 78%
    02:00 +20°C° 0 mm 3 mps 712 mmHg 79%
    03:00 +19°C° 0 mm 3 mps 713 mmHg 80%
    04:00 +19°C° 0 mm 3 mps 713 mmHg 80%
    05:00 +19°C° 0 mm 3 mps 713 mmHg 81%
    06:00 +19°C° 0 mm 3 mps 713 mmHg 79%
    07:00 +19°C° 0 mm 3 mps 713 mmHg 77%
    08:00 +20°C° 0 mm 3 mps 713 mmHg 75%
    09:00 +21°C° 0.1 mm 3 mps 713 mmHg 71%
    10:00 +22°C° 0.1 mm 3 mps 713 mmHg 67%
    11:00 +24°C° 0.1 mm 3 mps 713 mmHg 63%
    12:00 +25°C° 0 mm 3 mps 713 mmHg 60%
    13:00 +26°C° 0 mm 3 mps 712 mmHg 58%
    14:00 +26°C° 0 mm 3 mps 711 mmHg 56%
    15:00 +26°C° 0 mm 3 mps 711 mmHg 58%
    16:00 +26°C° 0 mm 3 mps 710 mmHg 59%
    17:00 +25°C° 0 mm 3 mps 710 mmHg 60%
    18:00 +24°C° 0 mm 2 mps 710 mmHg 65%
    19:00 +23°C° 0 mm 2 mps 710 mmHg 71%
    20:00 +22°C° 0 mm 1 mps 710 mmHg 76%
    21:00 +22°C° 0 mm 1 mps 710 mmHg 77%
    22:00 +21°C° 0 mm 1 mps 711 mmHg 79%
    23:00 +21°C° 0 mm 1 mps 711 mmHg 80%

    Tomorrow, 25 April, Tuesday

    Time Temperature Precipitation Wind Pressure Humidity
    00:00 +21°C° 0 mm 1 mps 710 mmHg 81%
    01:00 +21°C° 0 mm 1 mps 710 mmHg 82%
    02:00 +20°C° 0 mm 1 mps 710 mmHg 83%
    03:00 +20°C° 0 mm 1 mps 710 mmHg 83%
    04:00 +20°C° 0 mm 1 mps 709 mmHg 83%
    05:00 +20°C° 0 mm 1 mps 709 mmHg 82%
    06:00 +20°C° 0 mm 1 mps 709 mmHg 78%
    07:00 +21°C° 0 mm 1 mps 709 mmHg 74%
    08:00 +21°C° 0 mm 1 mps 709 mmHg 69%
    09:00 +23°C° 0 mm 2 mps 710 mmHg 59%
    10:00 +25°C° 0 mm 3 mps 710 mmHg 49%
    11:00 +28°C° 0 mm 3 mps 711 mmHg 39%
    12:00 +27°C° 0 mm 5 mps 711 mmHg 40%
    13:00 +27°C° 0 mm 7 mps 711 mmHg 40%
    14:00 +27°C° 0 mm 8 mps 711 mmHg 41%
    15:00 +26°C° 0 mm 8 mps 711 mmHg 42%
    16:00 +24°C° 0 mm 7 mps 712 mmHg 43%
    17:00 +23°C° 0 mm 7 mps 712 mmHg 43%
    18:00 +22°C° 0 mm 6 mps 713 mmHg 48%
    19:00 +20°C° 0 mm 4 mps 714 mmHg 52%
    20:00 +19°C° 0 mm 3 mps 715 mmHg 57%
    21:00 +18°C° 0 mm 2 mps 715 mmHg 59%
    22:00 +17°C° 0 mm 2 mps 716 mmHg 61%
    23:00 +17°C° 0 mm 2 mps 717 mmHg 63%

    Day after tomorrow, 26 April, Wednesday

    Time Temperature Precipitation Wind Pressure Humidity
    00:00 +16°C° 0 mm 2 mps 717 mmHg 64%
    01:00 +15°C° 0 mm 2 mps 717 mmHg 64%
    02:00 +15°C° 0 mm 2 mps 717 mmHg 64%
    03:00 +14°C° 0 mm 2 mps 717 mmHg 64%
    04:00 +14°C° 0 mm 1 mps 716 mmHg 63%
    05:00 +13°C° 0 mm 1 mps 716 mmHg 63%
    06:00 +13°C° 0 mm 1 mps 717 mmHg 60%
    07:00 +14°C° 0 mm 1 mps 717 mmHg 57%
    08:00 +14°C° 0 mm 2 mps 718 mmHg 53%
    09:00 +16°C° 0 mm 2 mps 718 mmHg 47%
    10:00 +17°C° 0 mm 2 mps 718 mmHg 41%
    11:00 +19°C° 0 mm 2 mps 718 mmHg 34%
    12:00 +20°C° 0 mm 3 mps 718 mmHg 32%
    13:00 +20°C° 0 mm 3 mps 717 mmHg 30%
    14:00 +21°C° 0 mm 3 mps 716 mmHg 28%
    15:00 +21°C° 0 mm 3 mps 716 mmHg 28%
    16:00 +21°C° 0 mm 3 mps 716 mmHg 28%
    17:00 +20°C° 0 mm 3 mps 716 mmHg 29%
    18:00 +19°C° 0 mm 2 mps 716 mmHg 32%
    19:00 +17°C° 0 mm 2 mps 717 mmHg 36%
    20:00 +16°C° 0 mm 1 mps 717 mmHg 39%
    21:00 +15°C° 0 mm 1 mps 718 mmHg 41%
    22:00 +15°C° 0 mm 1 mps 718 mmHg 43%
    23:00 +14°C° 0 mm 1 mps 718 mmHg 44%

    27 April, Thursday

    Time Temperature Precipitation Wind Pressure Humidity
    00:00 +14°C° 0 mm 1 mps 718 mmHg 46%
    01:00 +14°C° 0 mm 1 mps 718 mmHg 47%
    02:00 +13°C° 0 mm 1 mps 718 mmHg 48%
    03:00 +13°C° 0 mm 1 mps 717 mmHg 49%
    04:00 +13°C° 0 mm 1 mps 717 mmHg 51%
    05:00 +12°C° 0 mm 1 mps 717 mmHg 52%
    06:00 +13°C° 0 mm 1 mps 717 mmHg 49%
    07:00 +14°C° 0 mm 1 mps 717 mmHg 47%
    08:00 +15°C° 0 mm 1 mps 717 mmHg 45%
    09:00 +18°C° 0 mm 2 mps 717 mmHg 40%
    10:00 +20°C° 0 mm 2 mps 717 mmHg 35%
    11:00 +23°C° 0 mm 2 mps 717 mmHg 30%
    12:00 +24°C° 0 mm 2 mps 716 mmHg 28%
    13:00 +25°C° 0 mm 2 mps 715 mmHg 26%
    14:00 +26°C° 0 mm 2 mps 714 mmHg 24%
    15:00 +26°C° 0 mm 2 mps 714 mmHg 25%
    16:00 +26°C° 0 mm 2 mps 714 mmHg 26%
    17:00 +25°C° 0 mm 2 mps 713 mmHg 27%
    18:00 +23°C° 0 mm 2 mps 714 mmHg 32%
    19:00 +20°C° 0 mm 2 mps 714 mmHg 37%
    20:00 +19°C° 0 mm 2 mps 715 mmHg 41%
    21:00 +18°C° 0 mm 2 mps 715 mmHg 44%
    22:00 +17°C° 0 mm 2 mps 715 mmHg 46%
    23:00 +17°C° 0 mm 2 mps 716 mmHg 48%

    28 April, Friday

    Time Temperature Precipitation Wind Pressure Humidity
    00:00 +16°C° 0 mm 2 mps 716 mmHg 50%
    01:00 +16°C° 0 mm 2 mps 716 mmHg 52%
    02:00 +15°C° 0 mm 2 mps 716 mmHg 54%
    03:00 +15°C° 0 mm 2 mps 716 mmHg 55%
    04:00 +14°C° 0 mm 2 mps 716 mmHg 56%
    05:00 +14°C° 0 mm 2 mps 716 mmHg 57%
    06:00 +15°C° 0 mm 1 mps 717 mmHg 55%
    07:00 +15°C° 0 mm 1 mps 718 mmHg 53%
    08:00 +16°C° 0 mm 1 mps 718 mmHg 50%
    09:00 +18°C° 0 mm 2 mps 719 mmHg 43%
    10:00 +20°C° 0 mm 2 mps 719 mmHg 36%
    11:00 +23°C° 0 mm 2 mps 720 mmHg 29%
    12:00 +24°C° 0 mm 2 mps 719 mmHg 28%
    13:00 +25°C° 0 mm 3 mps 719 mmHg 26%
    14:00 +26°C° 0 mm 3 mps 718 mmHg 25%
    15:00 +26°C° 0 mm 2 mps 718 mmHg 26%
    16:00 +25°C° 0 mm 2 mps 718 mmHg 28%
    17:00 +25°C° 0 mm 2 mps 718 mmHg 29%
    18:00 +23°C° 0 mm 2 mps 718 mmHg 35%
    19:00 +21°C° 0 mm 1 mps 719 mmHg 42%
    20:00 +19°C° 0 mm 1 mps 719 mmHg 48%
    21:00 +18°C° 0 mm 1 mps 719 mmHg 50%
    22:00 +18°C° 0 mm 1 mps 719 mmHg 52%
    23:00 +16°C° 0 mm 1 mps 719 mmHg 53%

    29 April, Saturday

    Time Temperature Precipitation Wind Pressure Humidity
    00:00 +16°C° 0 mm 1 mps 719 mmHg 55%
    01:00 +15°C° 0 mm 1 mps 718 mmHg 56%
    02:00 +15°C° 0 mm 1 mps 718 mmHg 57%
    03:00 +15°C° 0 mm 1 mps 718 mmHg 59%
    04:00 +14°C° 0 mm 1 mps 718 mmHg 60%
    05:00 +14°C° 0 mm 1 mps 717 mmHg 62%
    06:00 +15°C° 0 mm 1 mps 718 mmHg 59%
    07:00 +15°C° 0 mm 1 mps 718 mmHg 56%
    08:00 +16°C° 0 mm 1 mps 719 mmHg 53%
    09:00 +19°C° 0 mm 2 mps 719 mmHg 46%
    10:00 +21°C° 0 mm 2 mps 718 mmHg 38%
    11:00 +24°C° 0 mm 2 mps 718 mmHg 31%
    12:00 +25°C° 0 mm 2 mps 718 mmHg 29%
    13:00 +26°C° 0 mm 2 mps 717 mmHg 28%
    14:00 +27°C° 0 mm 2 mps 716 mmHg 26%
    15:00 +27°C° 0 mm 2 mps 716 mmHg 27%
    16:00 +26°C° 0 mm 2 mps 716 mmHg 29%
    17:00 +26°C° 0 mm 2 mps 716 mmHg 30%
    18:00 +24°C° 0 mm 2 mps 716 mmHg 36%
    19:00 +21°C° 0 mm 2 mps 717 mmHg 41%
    20:00 +19°C° 0 mm 2 mps 717 mmHg 47%
    21:00 +19°C° 0 mm 1 mps 717 mmHg 49%
    22:00 +19°C° 0 mm 1 mps 717 mmHg 51%
    23:00 +18°C° 0 mm 1 mps 718 mmHg 54%
    Show more